Flag for U.S.A. Weather past 2 weeks in Oakland, California, U.S.A.

Now
47 °F

Clear.


Feels Like: 47 °F
Forecast: 46 / 64 °F
Wind: No wind

Location: Metro Oakland International Airport

Current Time: Mar 4, 2015 at 12:41:49 AM

Latest Report: Mar 3, 2015 at 11:53 PM


Visibility: 10 mi

Pressure: 30.03 "Hg

Humidity: 80%

Dew point: 41 °F

Location of OaklandLocation

Historic Weather in Oakland — Graph

°F

Oakland temperature yesterday

Maximum temperature yesterday: 64 °F (at 2:53 PM)
Minimum temperature yesterday: 43 °F (at 5:53 AM)
Average temperature yesterday: 52 °F

Past Weeks' High & Low Weather Summary

 TemperatureHumidityPressure
High67 °F (Feb 22, 2:53 PM)100% (Feb 22, 7:53 AM)30.36 "Hg (Feb 22, 7:53 AM)
Low40 °F (Feb 24, 3:53 AM)18% (Feb 23, 8:53 AM)29.72 "Hg (Feb 28, 3:53 AM)
Average55 °F69%30.02 "Hg
* Reported Feb 16 10:53 PM — Mar 3 10:53 PM, Oakland, Weather by CustomWeather, © 2015

Note: Actual official high and low records may vary slightly from our data, if they occured in-between our weather recording intervals... More about our weather records

Advertising

Oakland weather history for previous 24 hours

 ConditionsComfort  
Time TempWeatherWind HumidityBarometerVisibility
10:53 PM
Tue, Mar 3
47 °FClear.No wind83%30.03 "Hg10 mi
9:53 PM52 °FPassing clouds.No wind77%30.01 "Hg10 mi
8:53 PM53 °FPassing clouds.3 mph74%30.01 "Hg10 mi
7:53 PM54 °FPassing clouds.9 mph72%30.00 "Hg10 mi
6:53 PM54 °FPassing clouds.7 mph69%29.98 "Hg10 mi
5:53 PM58 °FPartly sunny.13 mph62%29.97 "Hg10 mi
4:53 PM60 °FPartly sunny.16 mph60%29.97 "Hg10 mi
3:53 PM62 °FBroken clouds.15 mph58%29.98 "Hg10 mi
2:53 PM64 °FScattered clouds.14 mph49%29.99 "Hg10 mi
1:53 PM62 °FPassing clouds.9 mph52%30.00 "Hg10 mi
12:53 PM59 °FPassing clouds.7 mph64%30.02 "Hg10 mi
11:53 AM57 °FPassing clouds.6 mph69%30.04 "Hg10 mi
10:53 AM55 °FPassing clouds.6 mph72%30.06 "Hg10 mi
9:53 AM53 °FPassing clouds.3 mph74%30.06 "Hg10 mi
8:53 AM52 °FPassing clouds.No wind75%30.06 "Hg10 mi
7:53 AM48 °FPassing clouds.No wind89%30.04 "Hg10 mi
6:53 AM43 °FPassing clouds.No wind86%30.02 "Hg10 mi
5:53 AM43 °FClear.No wind86%30.01 "Hg10 mi
4:53 AM44 °FClear.No wind85%30.00 "Hg10 mi
3:53 AM44 °FClear.No wind85%29.99 "Hg10 mi
2:53 AM45 °FClear.3 mph82%29.99 "Hg10 mi
1:53 AM47 °FClear.No wind80%30.00 "Hg10 mi
12:53 AM48 °FClear.3 mph77%29.99 "Hg10 mi
Weather by CustomWeather, © 2015

See weather overviewHow to use our weather pages